Location: Gellin
(53.4498°N, 14.3207°E)
Time: 23:33:14
(UTC+00:00)

SJ 16-02 - Pass Details

Date: 03 March 2021
Orbit: 605 x 617 km, 75.0° (Epoch: 12 April)

Event Time Altitude Azimuth Distance (km) Brightness Sun altitude
Rises 19:33:12 0° 333° (NNW) 2,885 5.6 -25.3°
Reaches altitude 10° 19:35:27 10° 331° (NNW) 1,978 4.6 -25.6°
Enters shadow 19:39:38 63° 266° (W) 687 1.7 -26.2°
